Location: *
(28.3744°N, 81.5492°W)
Time: 03:35:24
(UTC+00:00)

Cosmos 1725 Rocket - Pass Details

Date: 15 June 2025
Orbit: 962 x 989 km, 82.9° (Epoch: 11 July)

Event Time Altitude Azimuth Distance (km) Brightness Sun altitude
Rises 03:07:37 0° 359° (N) 3,691 7.8 -28.4°
Reaches altitude 10° 03:10:11 10° 3° (N) 2,743 6.9 -28.7°
Enters shadow 03:15:56 60° 62° (ENE) 1,122 4.2 -29.5°
